Oelwein, IA

4:12 PM CDT on July 27, 2017 (GMT -0500)
Oelwein Municipal

Weather History for KOLZ - July, 2013

Change the Weather History Date:

Friday, July 5, 2013

  Actual Average Record
Temperature  
Mean Temperature 73 °F -  
Max Temperature 86 °F 82 °F 95 °F (1989)
Min Temperature 60 °F 59 °F 44 °F (1972)
Cooling Degree Days 8    
Growing Degree Days 23 (Base 50)    
Moisture  
Dew Point 59 °F    
Average Humidity 62    
Maximum Humidity 94    
Minimum Humidity 37    
Precipitation  
Precipitation 0.00 in - - ()
Sea Level Pressure  
Sea Level Pressure 30.00 in    
Wind  
Wind Speed 10 mph (South)    
Max Wind Speed 20 mph    
Max Gust Speed 26 mph    
Visibility 10 miles    
Events      
Averages and records for this station are not official NWS values.
T = Trace of Precipitation, MM = Missing Value Source: NWS Daily Summary

Daily Weather History Graph

Daily Weather History Graph

Search for Another Location

Airport or City:

Trip Planner

Search our weather history database for the weather conditions in past years. The results will help you decide how hot, cold, wet, or windy it might be!

Date:

Astronomy

Jul. 05, 2013 Rise Set
Actual Time 5:36 AM CDT 8:48 PM CDT
Civil Twilight 5:01 AM CDT 9:23 PM CDT
Nautical Twilight 4:16 AM CDT 10:07 PM CDT
Astronomical Twilight 3:22 AM CDT 11:01 PM CDT
Moon 3:37 AM CDT (7/5) 6:42 PM CDT (7/5)
Length of Visible Light 16h 21m
Length of Day
15h 12m
Waning Crescent, 6% of the Moon is Illuminated
Jul 5
Waning Crescent
Jul 8
New
Jul 15
First Quarter
Jul 22
Full
Jul 29
Last Quarter

Hourly Weather History & Observations

Time (CDT) Temp. Heat Index Dew Point Humidity Pressure Visibility Wind Dir Wind Speed Gust Speed Precip Events Conditions
12:15 AM 66.2 °F - 59.0 °F 78% 30.02 in 10.0 mi SSE 5.8 mph - N/A   Clear
12:35 AM 66.2 °F - 59.0 °F 78% 30.02 in 10.0 mi SSE 6.9 mph - N/A   Clear
12:55 AM 64.4 °F - 59.0 °F 83% 30.02 in 10.0 mi SSE 5.8 mph - N/A   Clear
1:15 AM 64.4 °F - 59.0 °F 83% 30.02 in 10.0 mi SSE 6.9 mph - N/A   Clear
1:35 AM 64.4 °F - 59.0 °F 83% 30.01 in 10.0 mi SE 6.9 mph - N/A   Clear
1:55 AM 64.4 °F - 59.0 °F 83% 30.01 in 10.0 mi SE 6.9 mph - N/A   Clear
2:15 AM 64.4 °F - 59.0 °F 83% 30.01 in 10.0 mi SE 6.9 mph - N/A   Clear
2:35 AM 64.4 °F - 59.0 °F 83% 30.01 in 10.0 mi SSE 6.9 mph - N/A   Clear
2:55 AM 64.4 °F - 59.0 °F 83% 30.00 in 10.0 mi SSE 6.9 mph - N/A   Clear
3:15 AM 64.4 °F - 59.0 °F 83% 30.01 in 10.0 mi SSE 8.1 mph - N/A   Clear
3:35 AM 62.6 °F - 59.0 °F 88% 30.01 in 10.0 mi SSE 8.1 mph - N/A   Clear
3:55 AM 62.6 °F - 59.0 °F 88% 30.01 in 10.0 mi SSE 8.1 mph - N/A   Clear
4:15 AM 62.6 °F - 59.0 °F 88% 30.01 in 10.0 mi SSE 8.1 mph - N/A   Clear
4:35 AM 62.6 °F - 59.0 °F 88% 30.01 in 10.0 mi SE 6.9 mph - N/A   Clear
4:55 AM 62.6 °F - 59.0 °F 88% 30.02 in 10.0 mi SSE 8.1 mph - N/A   Clear
5:15 AM 62.6 °F - 59.0 °F 88% 30.02 in 10.0 mi SSE 6.9 mph - N/A   Clear
5:35 AM 60.8 °F - 59.0 °F 94% 30.02 in 9.0 mi SSE 8.1 mph - N/A   Clear
5:55 AM 62.6 °F - 59.0 °F 88% 30.02 in 9.0 mi SSE 8.1 mph - N/A   Clear
6:15 AM 62.6 °F - 59.0 °F 88% 30.02 in 10.0 mi SSE 6.9 mph - N/A   Clear
6:35 AM 64.4 °F - 59.0 °F 83% 30.02 in 10.0 mi South 6.9 mph - N/A   Clear
6:55 AM 64.4 °F - 60.8 °F 88% 30.03 in 10.0 mi SSE 8.1 mph - N/A   Clear
7:15 AM 66.2 °F - 60.8 °F 83% 30.03 in 10.0 mi South 9.2 mph - N/A   Clear
7:35 AM 68.0 °F - 60.8 °F 78% 30.03 in 10.0 mi South 9.2 mph - N/A   Clear
7:55 AM 69.8 °F - 60.8 °F 73% 30.04 in 10.0 mi South 11.5 mph - N/A   Clear
8:15 AM 71.6 °F - 60.8 °F 69% 30.04 in 10.0 mi South 9.2 mph 16.1 mph N/A   Clear
8:35 AM 73.4 °F - 59.0 °F 61% 30.05 in 10.0 mi South 12.7 mph 18.4 mph N/A   Clear
8:55 AM 75.2 °F - 59.0 °F 57% 30.05 in 10.0 mi South 10.4 mph 16.1 mph N/A   Clear
9:15 AM 75.2 °F - 59.0 °F 57% 30.05 in 10.0 mi South 10.4 mph 19.6 mph N/A   Clear
9:35 AM 77.0 °F - 59.0 °F 54% 30.05 in 10.0 mi South 11.5 mph - N/A   Clear
9:55 AM 77.0 °F - 59.0 °F 54% 30.03 in 10.0 mi SSW 13.8 mph - N/A   Clear
10:15 AM 78.8 °F - 59.0 °F 51% 30.03 in 10.0 mi SSW 13.8 mph - N/A   Clear
10:35 AM 78.8 °F - 60.8 °F 54% 30.03 in 10.0 mi South 10.4 mph 17.3 mph N/A   Clear
10:55 AM 80.6 °F 81.5 °F 60.8 °F 51% 30.03 in 10.0 mi SSW 12.7 mph - N/A   Clear
11:15 AM 80.6 °F 81.5 °F 60.8 °F 51% 30.02 in 10.0 mi South 12.7 mph 18.4 mph N/A   Clear
11:35 AM 82.4 °F 82.5 °F 59.0 °F 45% 30.02 in 10.0 mi South 15.0 mph - N/A   Clear
11:55 AM 82.4 °F 82.5 °F 59.0 °F 45% 30.01 in 10.0 mi South 15.0 mph - N/A   Clear
12:15 PM 84.2 °F 83.8 °F 59.0 °F 42% 30.01 in 10.0 mi South 15.0 mph 21.9 mph N/A   Clear
12:35 PM 84.2 °F 83.8 °F 59.0 °F 42% 30.00 in 10.0 mi South 18.4 mph 25.3 mph N/A   Clear
12:55 PM 84.2 °F 83.8 °F 59.0 °F 42% 30.00 in 10.0 mi South 16.1 mph 23.0 mph N/A   Clear
1:15 PM 84.2 °F 83.8 °F 59.0 °F 42% 30.00 in 10.0 mi South 12.7 mph 24.2 mph N/A   Clear
1:35 PM 86.0 °F 85.4 °F 59.0 °F 40% 30.00 in 10.0 mi South 16.1 mph - N/A   Clear
1:55 PM 86.0 °F 84.9 °F 57.2 °F 37% 30.00 in 10.0 mi South 12.7 mph 24.2 mph N/A   Clear
2:15 PM 86.0 °F 84.9 °F 57.2 °F 37% 30.00 in 10.0 mi SSW 18.4 mph - N/A   Partly Cloudy
2:35 PM 86.0 °F 84.9 °F 57.2 °F 37% 29.99 in 10.0 mi South 18.4 mph - N/A   Clear
2:55 PM 86.0 °F 85.4 °F 59.0 °F 40% 29.99 in 10.0 mi South 15.0 mph 24.2 mph N/A   Clear
3:15 PM 86.0 °F 84.9 °F 57.2 °F 37% 29.99 in 10.0 mi South 15.0 mph 26.5 mph N/A   Partly Cloudy
3:35 PM 86.0 °F 84.9 °F 57.2 °F 37% 29.98 in 10.0 mi South 18.4 mph 25.3 mph N/A   Partly Cloudy
3:55 PM 86.0 °F 84.9 °F 57.2 °F 37% 29.98 in 10.0 mi SSW 17.3 mph 25.3 mph N/A   Clear
4:15 PM 86.0 °F 85.4 °F 59.0 °F 40% 29.97 in 10.0 mi South 16.1 mph 23.0 mph N/A   Clear
4:35 PM 86.0 °F 84.9 °F 57.2 °F 37% 29.98 in 10.0 mi SSW 18.4 mph - N/A   Clear
4:55 PM 86.0 °F 85.4 °F 59.0 °F 40% 29.97 in 10.0 mi SSW 16.1 mph 24.2 mph N/A   Clear
5:15 PM 86.0 °F 84.9 °F 57.2 °F 37% 29.97 in 10.0 mi South 18.4 mph - N/A   Clear
5:35 PM 86.0 °F 84.9 °F 57.2 °F 37% 29.97 in 10.0 mi South 16.1 mph - N/A   Clear
5:55 PM 84.2 °F 83.8 °F 59.0 °F 42% 29.96 in 10.0 mi South 17.3 mph 23.0 mph N/A   Clear
6:15 PM 84.2 °F 83.8 °F 59.0 °F 42% 29.96 in 10.0 mi South 19.6 mph - N/A   Clear
6:35 PM 84.2 °F 83.8 °F 59.0 °F 42% 29.96 in 10.0 mi South 18.4 mph - N/A   Clear
6:55 PM 82.4 °F 82.5 °F 59.0 °F 45% 29.96 in 10.0 mi South 15.0 mph - N/A   Clear
7:15 PM 82.4 °F 82.9 °F 60.8 °F 48% 29.96 in 10.0 mi South 15.0 mph - N/A   Clear
7:35 PM 80.6 °F 81.5 °F 60.8 °F 51% 29.97 in 10.0 mi South 12.7 mph - N/A   Clear
7:55 PM 80.6 °F 81.5 °F 60.8 °F 51% 29.97 in 10.0 mi South 11.5 mph - N/A   Partly Cloudy
8:15 PM 78.8 °F - 60.8 °F 54% 29.97 in 10.0 mi South 8.1 mph - N/A   Partly Cloudy
8:35 PM 77.0 °F - 60.8 °F 57% 29.97 in 10.0 mi SSE 9.2 mph - N/A   Clear
8:55 PM 77.0 °F - 60.8 °F 57% 29.96 in 10.0 mi SSE 8.1 mph - N/A   Mostly Cloudy
9:15 PM 75.2 °F - 60.8 °F 61% 29.97 in 10.0 mi SSE 9.2 mph - N/A   Scattered Clouds
9:35 PM 75.2 °F - 60.8 °F 61% 29.97 in 10.0 mi SSE 9.2 mph - N/A   Scattered Clouds
9:55 PM 73.4 °F - 60.8 °F 65% 29.98 in 10.0 mi SSE 9.2 mph - N/A   Partly Cloudy
10:15 PM 73.4 °F - 60.8 °F 65% 29.98 in 10.0 mi SSE 9.2 mph - N/A   Partly Cloudy
10:35 PM 73.4 °F - 62.6 °F 69% 29.99 in 10.0 mi SSE 9.2 mph - N/A   Mostly Cloudy
10:55 PM 73.4 °F - 62.6 °F 69% 29.99 in 10.0 mi SSE 10.4 mph - N/A   Mostly Cloudy
11:15 PM 71.6 °F - 62.6 °F 73% 29.99 in 10.0 mi SSE 10.4 mph - N/A   Scattered Clouds
11:35 PM 71.6 °F - 62.6 °F 73% 29.99 in 10.0 mi SSE 8.1 mph - N/A   Clear
11:55 PM 69.8 °F - 62.6 °F 78% 29.99 in 10.0 mi SSE 10.4 mph - N/A   Clear